EZY8385 EGKK-LFBD

Flight info

Callsign EZY8385
Flight time 1h 11m
Altitude 33000
Route SFD Y47 BENBO UY47 DRAKE L151 SITET UN859 SOPIL DCT BALAN DCT LMG
Aircraft A320/M-SDE3FGHIRWY/LB1

Departure

Time 2026-05-05 18:02
Airport London Gatwick Airport (EGKK)

Arrival

Time 2026-05-05 19:13
Airport Bordeaux–Mérignac Airport (LFBD)
Time Latitude Longitude Altitude Speed Heading
2026-05-05 17:44 51.15564 -0.17821 205 ft 0 kts 347°
2026-05-05 17:53 51.15544 -0.17814 213 ft 4 kts 347°
2026-05-05 17:53 51.15520 -0.17806 211 ft 4 kts 342°
2026-05-05 17:54 51.15503 -0.17784 214 ft 4 kts 269°
2026-05-05 17:54 51.15508 -0.17743 211 ft 4 kts 256°
2026-05-05 17:54 51.15509 -0.17733 211 ft 1 kts 257°
2026-05-05 17:57 51.15504 -0.17773 211 ft 10 kts 257°
2026-05-05 17:57 51.15487 -0.17886 208 ft 10 kts 257°
2026-05-05 17:57 51.15468 -0.18029 205 ft 20 kts 258°
2026-05-05 17:57 51.15444 -0.18208 214 ft 11 kts 256°
2026-05-05 17:58 51.15401 -0.18282 210 ft 9 kts 181°
2026-05-05 17:58 51.15315 -0.18255 207 ft 18 kts 168°
2026-05-05 17:58 51.15193 -0.18239 210 ft 15 kts 219°
2026-05-05 17:58 51.15172 -0.18417 213 ft 24 kts 259°
2026-05-05 17:59 51.15130 -0.18734 206 ft 30 kts 256°
2026-05-05 17:59 51.15088 -0.19035 213 ft 24 kts 259°
2026-05-05 17:59 51.15061 -0.19231 205 ft 13 kts 245°
2026-05-05 17:59 51.14990 -0.19269 207 ft 9 kts 190°
2026-05-05 18:00 51.14955 -0.19347 213 ft 13 kts 255°
2026-05-05 18:00 51.14928 -0.19533 207 ft 21 kts 257°
2026-05-05 18:00 51.14894 -0.19785 212 ft 26 kts 257°
2026-05-05 18:00 51.14852 -0.20086 210 ft 28 kts 257°
2026-05-05 18:01 51.14813 -0.20363 203 ft 24 kts 257°
2026-05-05 18:01 51.14776 -0.20618 208 ft 24 kts 257°
2026-05-05 18:01 51.14684 -0.20708 207 ft 17 kts 169°
2026-05-05 18:01 51.14603 -0.20562 213 ft 25 kts 72°
2026-05-05 18:02 51.14683 -0.19995 213 ft 86 kts 77°
2026-05-05 18:02 51.14854 -0.18753 206 ft 141 kts 78°
2026-05-05 18:02 51.15084 -0.17046 453 ft 166 kts 78°
2026-05-05 18:02 51.15327 -0.15205 1088 ft 174 kts 78°
2026-05-05 18:03 51.15604 -0.13198 1493 ft 197 kts 76°
2026-05-05 18:03 51.15918 -0.10954 1983 ft 214 kts 76°
2026-05-05 18:03 51.16226 -0.08622 2766 ft 221 kts 81°
2026-05-05 18:03 51.16085 -0.06052 3203 ft 250 kts 109°
2026-05-05 18:04 51.14975 -0.03822 3844 ft 269 kts 146°
2026-05-05 18:04 51.13211 -0.02704 4674 ft 277 kts 163°
2026-05-05 18:04 51.11335 -0.01899 5551 ft 281 kts 165°
2026-05-05 18:04 51.09428 -0.01155 6439 ft 285 kts 166°
2026-05-05 18:05 51.07490 -0.00414 7274 ft 288 kts 166°
2026-05-05 18:05 51.05519 0.00348 7766 ft 292 kts 166°
2026-05-05 18:05 51.03542 0.01123 7913 ft 292 kts 166°
2026-05-05 18:05 51.01599 0.01894 7936 ft 291 kts 165°
2026-05-05 18:06 50.99636 0.02683 7947 ft 291 kts 165°
2026-05-05 18:06 50.98305 0.03221 7949 ft 291 kts 165°
2026-05-05 18:06 50.95700 0.04280 7938 ft 291 kts 165°
2026-05-05 18:06 50.93745 0.05073 7947 ft 291 kts 165°
2026-05-05 18:07 50.91774 0.05868 7944 ft 291 kts 165°
2026-05-05 18:07 50.89812 0.06659 7945 ft 291 kts 165°
2026-05-05 18:07 50.87852 0.07450 8318 ft 296 kts 165°
2026-05-05 18:07 50.85932 0.08227 9239 ft 296 kts 165°
2026-05-05 18:08 50.83995 0.09010 10072 ft 298 kts 166°
2026-05-05 18:08 50.81973 0.09824 10860 ft 300 kts 165°
2026-05-05 18:08 50.79965 0.10630 11648 ft 302 kts 165°
2026-05-05 18:08 50.77928 0.11442 12436 ft 304 kts 166°
2026-05-05 18:09 50.75803 0.11800 13194 ft 309 kts 180°
2026-05-05 18:09 50.73603 0.11368 13469 ft 331 kts 192°
2026-05-05 18:09 50.71280 0.10520 13686 ft 350 kts 192°
2026-05-05 18:09 50.68908 0.09639 14191 ft 358 kts 192°
2026-05-05 18:10 50.66499 0.08743 14766 ft 362 kts 192°
2026-05-05 18:10 50.64035 0.07833 15374 ft 366 kts 192°
2026-05-05 18:10 50.61537 0.06919 15984 ft 369 kts 192°
2026-05-05 18:10 50.59013 0.06004 16597 ft 373 kts 192°
2026-05-05 18:11 50.56469 0.05091 17201 ft 377 kts 192°
2026-05-05 18:11 50.53900 0.04169 17808 ft 380 kts 192°
2026-05-05 18:11 50.51301 0.03233 18374 ft 384 kts 192°
2026-05-05 18:11 50.48774 0.02321 18868 ft 387 kts 192°
2026-05-05 18:12 50.46168 0.01387 19376 ft 390 kts 192°
2026-05-05 18:12 50.43511 0.00440 19909 ft 393 kts 192°
2026-05-05 18:12 50.40830 -0.00516 20427 ft 396 kts 192°
2026-05-05 18:12 50.38186 -0.01460 20930 ft 398 kts 192°
2026-05-05 18:13 50.35469 -0.02435 21429 ft 401 kts 193°
2026-05-05 18:13 50.32734 -0.03417 21921 ft 404 kts 192°
2026-05-05 18:13 50.30009 -0.04389 22400 ft 407 kts 192°
2026-05-05 18:13 50.27293 -0.05355 22877 ft 409 kts 193°
2026-05-05 18:14 50.24485 -0.06209 23348 ft 412 kts 186°
2026-05-05 18:14 50.21618 -0.06338 23763 ft 414 kts 175°
2026-05-05 18:14 50.18775 -0.05659 24182 ft 414 kts 165°
2026-05-05 18:14 50.16052 -0.04212 24606 ft 414 kts 155°
2026-05-05 18:15 50.13414 -0.02382 25041 ft 414 kts 155°
2026-05-05 18:15 50.10806 -0.00590 25473 ft 415 kts 157°
2026-05-05 18:15 50.08046 0.00777 25899 ft 416 kts 165°
2026-05-05 18:15 50.05239 0.01880 26314 ft 417 kts 165°
2026-05-05 18:16 50.02413 0.02991 26719 ft 417 kts 165°
2026-05-05 18:16 49.99588 0.04101 27131 ft 418 kts 165°
2026-05-05 18:16 49.96756 0.05217 27518 ft 419 kts 165°
2026-05-05 18:16 49.93922 0.06329 27908 ft 421 kts 165°
2026-05-05 18:17 49.91118 0.07429 28286 ft 422 kts 165°
2026-05-05 18:17 49.88260 0.08550 28664 ft 423 kts 165°
2026-05-05 18:17 49.85401 0.09671 29029 ft 425 kts 165°
2026-05-05 18:17 49.82531 0.10796 29370 ft 426 kts 165°
2026-05-05 18:18 49.79653 0.11925 29710 ft 427 kts 165°
2026-05-05 18:18 49.76752 0.13063 30015 ft 429 kts 165°
2026-05-05 18:18 49.73851 0.14195 30277 ft 431 kts 165°
2026-05-05 18:18 49.70943 0.15325 30535 ft 432 kts 165°
2026-05-05 18:19 49.68007 0.16466 30797 ft 434 kts 164°
2026-05-05 18:19 49.65110 0.17610 31035 ft 435 kts 164°
2026-05-05 18:19 49.62173 0.18794 31362 ft 435 kts 163°
2026-05-05 18:19 49.59249 0.19981 31728 ft 434 kts 163°
2026-05-05 18:20 49.56334 0.21160 32095 ft 432 kts 163°
2026-05-05 18:20 49.54406 0.21938 32333 ft 432 kts 163°
2026-05-05 18:20 49.50510 0.23510 32786 ft 431 kts 163°
2026-05-05 18:21 49.44785 0.25806 32886 ft 420 kts 163°
2026-05-05 18:21 49.39141 0.28050 32892 ft 418 kts 163°
2026-05-05 18:22 49.33531 0.30287 32889 ft 418 kts 163°
2026-05-05 18:22 49.28844 0.32166 32898 ft 418 kts 163°
2026-05-05 18:23 49.23266 0.34520 32886 ft 418 kts 162°
2026-05-05 18:23 49.17647 0.36927 32887 ft 418 kts 162°
2026-05-05 18:24 49.12074 0.39286 32884 ft 418 kts 162°
2026-05-05 18:24 49.06452 0.41633 32880 ft 418 kts 162°
2026-05-05 18:25 49.00868 0.43958 32879 ft 418 kts 162°
2026-05-05 18:25 48.95269 0.46289 32879 ft 417 kts 162°
2026-05-05 18:26 48.89655 0.48634 32874 ft 417 kts 162°
2026-05-05 18:26 48.84048 0.50956 32875 ft 417 kts 162°
2026-05-05 18:27 48.78479 0.53260 32878 ft 417 kts 162°
2026-05-05 18:27 48.72864 0.55512 32875 ft 417 kts 163°
2026-05-05 18:28 48.64420 0.58769 32871 ft 417 kts 163°
2026-05-05 18:28 48.58824 0.60939 32867 ft 417 kts 163°
2026-05-05 18:29 48.53197 0.63128 32867 ft 417 kts 163°
2026-05-05 18:29 48.47574 0.65368 32861 ft 417 kts 162°
2026-05-05 18:30 48.41963 0.67675 32859 ft 418 kts 162°
2026-05-05 18:30 48.36376 0.69971 32857 ft 418 kts 162°
2026-05-05 18:31 48.30736 0.72257 32855 ft 419 kts 162°
2026-05-05 18:31 48.25137 0.74512 32850 ft 419 kts 162°
2026-05-05 18:32 48.19483 0.76749 32852 ft 420 kts 163°
2026-05-05 18:32 48.13808 0.78967 32857 ft 421 kts 163°
2026-05-05 18:33 48.08156 0.81175 32850 ft 421 kts 163°
2026-05-05 18:33 48.02484 0.83401 32848 ft 421 kts 163°
2026-05-05 18:34 47.96802 0.85619 32846 ft 422 kts 163°
2026-05-05 18:34 47.91119 0.87834 32844 ft 422 kts 163°
2026-05-05 18:35 47.85468 0.90039 32844 ft 422 kts 163°
2026-05-05 18:35 47.79787 0.92242 32842 ft 422 kts 163°
2026-05-05 18:36 47.74099 0.94441 32839 ft 423 kts 164°
2026-05-05 18:36 47.68390 0.96647 32843 ft 423 kts 164°
2026-05-05 18:37 47.62706 0.98833 32853 ft 423 kts 164°
2026-05-05 18:37 47.57001 1.01031 32856 ft 424 kts 164°
2026-05-05 18:38 47.51284 1.03234 32857 ft 424 kts 164°
2026-05-05 18:38 47.45604 1.05407 32858 ft 424 kts 165°
2026-05-05 18:39 47.39746 1.06370 32862 ft 426 kts 180°
2026-05-05 18:39 47.33803 1.06209 32865 ft 426 kts 180°
2026-05-05 18:40 47.27916 1.06074 32868 ft 425 kts 180°
2026-05-05 18:40 47.21991 1.05945 32866 ft 425 kts 180°
2026-05-05 18:41 47.16063 1.05810 32864 ft 425 kts 180°
2026-05-05 18:41 47.10175 1.05676 32863 ft 424 kts 180°
2026-05-05 18:42 47.04275 1.05538 32867 ft 424 kts 180°
2026-05-05 18:42 46.98354 1.05358 32871 ft 424 kts 180°
2026-05-05 18:43 46.92481 1.05085 32869 ft 424 kts 181°
2026-05-05 18:43 46.86585 1.04804 32867 ft 423 kts 181°
2026-05-05 18:44 46.80736 1.04548 32870 ft 423 kts 181°
2026-05-05 18:44 46.74853 1.04314 32872 ft 422 kts 181°
2026-05-05 18:45 46.68971 1.04073 32873 ft 422 kts 181°
2026-05-05 18:45 46.63133 1.03817 32874 ft 421 kts 181°
2026-05-05 18:46 46.57268 1.03569 32877 ft 421 kts 181°
2026-05-05 18:46 46.51404 1.03325 32888 ft 420 kts 181°
2026-05-05 18:47 46.45590 1.03195 32887 ft 420 kts 180°
2026-05-05 18:47 46.39745 1.03169 32886 ft 419 kts 180°
2026-05-05 18:48 46.33907 1.03133 32890 ft 418 kts 180°
2026-05-05 18:48 46.28112 1.03073 32893 ft 418 kts 180°
2026-05-05 18:49 46.22287 1.03008 32889 ft 418 kts 180°
2026-05-05 18:49 46.16468 1.02938 32898 ft 418 kts 180°
2026-05-05 18:50 46.12636 1.02893 32904 ft 417 kts 180°
2026-05-05 18:50 46.06951 1.02839 32912 ft 416 kts 180°
2026-05-05 18:51 46.01148 1.02768 32916 ft 416 kts 180°
2026-05-05 18:51 45.95368 1.02701 32918 ft 415 kts 180°
2026-05-05 18:52 45.89616 1.02641 32922 ft 418 kts 180°
2026-05-05 18:52 45.86710 1.02503 32657 ft 416 kts 186°
2026-05-05 18:52 45.83882 1.01584 31761 ft 420 kts 200°
2026-05-05 18:53 45.81257 0.99698 31064 ft 421 kts 213°
2026-05-05 18:53 45.79002 0.97048 30549 ft 419 kts 224°
2026-05-05 18:53 45.77186 0.93858 30023 ft 417 kts 232°
2026-05-05 18:53 45.75481 0.90505 29444 ft 413 kts 232°
2026-05-05 18:54 45.73886 0.87373 28970 ft 408 kts 232°
2026-05-05 18:54 45.72226 0.84118 28477 ft 402 kts 232°
2026-05-05 18:54 45.70585 0.80900 28001 ft 397 kts 232°
2026-05-05 18:54 45.68970 0.77736 27594 ft 390 kts 232°
2026-05-05 18:55 45.67442 0.74749 27452 ft 377 kts 232°
2026-05-05 18:55 45.65904 0.71741 27076 ft 371 kts 232°
2026-05-05 18:55 45.64364 0.68741 26206 ft 379 kts 232°
2026-05-05 18:55 45.62809 0.65725 25808 ft 373 kts 232°
2026-05-05 18:56 45.61278 0.62752 25381 ft 369 kts 232°
2026-05-05 18:56 45.59760 0.59799 24944 ft 365 kts 232°
2026-05-05 18:56 45.58281 0.56924 24491 ft 363 kts 232°
2026-05-05 18:56 45.56785 0.54021 24036 ft 361 kts 232°
2026-05-05 18:57 45.55300 0.51145 23574 ft 359 kts 232°
2026-05-05 18:57 45.53819 0.48281 23049 ft 357 kts 232°
2026-05-05 18:57 45.52354 0.45448 22606 ft 353 kts 232°
2026-05-05 18:57 45.50905 0.42642 22159 ft 350 kts 232°
2026-05-05 18:58 45.49480 0.39885 21717 ft 347 kts 232°
2026-05-05 18:58 45.48056 0.37131 21287 ft 345 kts 232°
2026-05-05 18:58 45.46632 0.34389 20853 ft 342 kts 232°
2026-05-05 18:58 45.45218 0.31670 20423 ft 340 kts 232°
2026-05-05 18:59 45.43806 0.28959 20021 ft 338 kts 232°
2026-05-05 18:59 45.42413 0.26285 19726 ft 334 kts 232°
2026-05-05 18:59 45.41017 0.23608 18887 ft 347 kts 232°
2026-05-05 18:59 45.39578 0.20849 18162 ft 346 kts 233°
2026-05-05 19:00 45.38144 0.18102 17211 ft 345 kts 233°
2026-05-05 19:00 45.36707 0.15355 16730 ft 343 kts 233°
2026-05-05 19:00 45.35299 0.12662 16011 ft 337 kts 233°
2026-05-05 19:00 45.33909 0.09983 15221 ft 333 kts 233°
2026-05-05 19:01 45.32500 0.07426 14419 ft 332 kts 231°
2026-05-05 19:01 45.31028 0.04930 13706 ft 327 kts 230°
2026-05-05 19:01 45.29540 0.02490 12888 ft 324 kts 230°
2026-05-05 19:01 45.28080 0.00119 12524 ft 308 kts 230°
2026-05-05 19:02 45.26703 -0.02123 12103 ft 296 kts 230°
2026-05-05 19:02 45.25369 -0.04312 11516 ft 292 kts 230°
2026-05-05 19:02 45.24056 -0.06484 10903 ft 289 kts 231°
2026-05-05 19:02 45.22758 -0.08640 10296 ft 286 kts 231°
2026-05-05 19:03 45.21488 -0.10755 9676 ft 284 kts 231°
2026-05-05 19:03 45.20216 -0.12874 9112 ft 278 kts 231°
2026-05-05 19:03 45.18986 -0.14916 8707 ft 267 kts 231°
2026-05-05 19:03 45.17803 -0.16871 8333 ft 256 kts 231°
2026-05-05 19:04 45.16665 -0.18755 7980 ft 248 kts 231°
2026-05-05 19:04 45.15531 -0.20636 7629 ft 251 kts 231°
2026-05-05 19:04 45.14399 -0.22513 7258 ft 250 kts 231°
2026-05-05 19:04 45.13278 -0.24369 6923 ft 250 kts 231°
2026-05-05 19:05 45.12164 -0.26205 6798 ft 239 kts 231°
2026-05-05 19:05 45.11094 -0.27964 6676 ft 230 kts 231°
2026-05-05 19:05 45.10067 -0.29656 6493 ft 225 kts 231°
2026-05-05 19:05 45.09062 -0.31316 6172 ft 227 kts 231°
2026-05-05 19:06 45.08026 -0.33029 5781 ft 231 kts 231°
2026-05-05 19:06 45.06971 -0.34766 5395 ft 234 kts 231°
2026-05-05 19:06 45.05908 -0.36516 5000 ft 233 kts 231°
2026-05-05 19:06 45.04868 -0.38224 4624 ft 227 kts 231°
2026-05-05 19:07 45.03843 -0.39905 4243 ft 222 kts 231°
2026-05-05 19:07 45.03178 -0.40997 3981 ft 220 kts 231°
2026-05-05 19:07 45.01859 -0.43162 3473 ft 215 kts 231°
2026-05-05 19:07 45.00887 -0.44754 3097 ft 213 kts 232°
2026-05-05 19:08 44.99928 -0.46327 2997 ft 211 kts 232°
2026-05-05 19:08 44.99061 -0.47997 3003 ft 211 kts 236°
2026-05-05 19:08 44.98133 -0.49568 3002 ft 212 kts 230°
2026-05-05 19:08 44.97125 -0.51069 3001 ft 205 kts 229°
2026-05-05 19:09 44.96157 -0.52464 3001 ft 192 kts 229°
2026-05-05 19:09 44.95240 -0.53784 3021 ft 184 kts 229°
2026-05-05 19:09 44.94356 -0.55057 3010 ft 183 kts 229°
2026-05-05 19:09 44.93479 -0.56318 2859 ft 177 kts 228°
2026-05-05 19:10 44.92631 -0.57536 2655 ft 171 kts 229°
2026-05-05 19:10 44.91804 -0.58724 2435 ft 168 kts 229°
2026-05-05 19:10 44.90988 -0.59896 2212 ft 165 kts 229°
2026-05-05 19:10 44.90187 -0.61045 1994 ft 162 kts 229°
2026-05-05 19:11 44.89414 -0.62154 1790 ft 150 kts 229°
2026-05-05 19:11 44.88714 -0.63156 1583 ft 141 kts 229°
2026-05-05 19:11 44.88038 -0.64127 1391 ft 136 kts 228°
2026-05-05 19:11 44.87373 -0.65080 1201 ft 136 kts 229°
2026-05-05 19:12 44.86733 -0.65997 1019 ft 134 kts 228°
2026-05-05 19:12 44.86084 -0.66926 837 ft 133 kts 228°
2026-05-05 19:12 44.85444 -0.67845 631 ft 132 kts 227°
2026-05-05 19:12 44.84798 -0.68772 430 ft 132 kts 226°
2026-05-05 19:13 44.84149 -0.69686 298 ft 132 kts 227°
2026-05-05 19:13 44.83726 -0.70301 175 ft 131 kts 227°
2026-05-05 19:13 44.83161 -0.71114 170 ft 96 kts 226°
2026-05-05 19:13 44.82811 -0.71616 172 ft 48 kts 226°
2026-05-05 19:14 44.82612 -0.71896 172 ft 26 kts 225°
2026-05-05 19:14 44.82501 -0.71859 171 ft 17 kts 124°
2026-05-05 19:14 44.82446 -0.71735 170 ft 13 kts 106°
2026-05-05 19:14 44.82485 -0.71628 170 ft 12 kts 50°
2026-05-05 19:15 44.82539 -0.71550 170 ft 11 kts 44°
2026-05-05 19:15 44.82587 -0.71482 170 ft 9 kts 45°
2026-05-05 19:15 44.82631 -0.71421 170 ft 8 kts 45°
2026-05-05 19:15 44.82670 -0.71366 170 ft 8 kts 45°
2026-05-05 19:16 44.82719 -0.71297 170 ft 12 kts 44°
2026-05-05 19:16 44.82795 -0.71191 169 ft 19 kts 43°
2026-05-05 19:16 44.82884 -0.71060 170 ft 18 kts 47°
2026-05-05 19:16 44.82937 -0.70928 170 ft 17 kts 99°
2026-05-05 19:17 44.82895 -0.70719 170 ft 26 kts 107°
2026-05-05 19:17 44.82844 -0.70475 170 ft 26 kts 106°
2026-05-05 19:17 44.82796 -0.70250 170 ft 14 kts 106°
2026-05-05 19:17 44.82830 -0.70161 170 ft 10 kts 57°
2026-05-05 19:18 44.82819 -0.70056 169 ft 11 kts 107°
2026-05-05 19:18 44.82827 -0.69988 169 ft 5 kts 14°
2026-05-05 19:18 44.82857 -0.69977 169 ft 2 kts 15°
2026-05-05 19:18 44.82859 -0.69976 169 ft 0 kts 15°